Back to catalog

STARLINK-4480

AliveCommunicationsVLEO
NORAD 53416·PAYLOAD·🇺🇸 United States

Launched Aug 10, 2022 from Cape Canaveral Space Force Station

Loading…

Next Passes (next 24 hours)

TLE

FreshSource: CelesTrak SupGP

Epoch: Sep 14, 2026, 22:21 UTC

1 53416C 22097AE  26257.93173611  .00192360  00000+0  87082-2 0  2576
2 53416  53.1609 343.0533 0001126  93.8391  25.3103 15.20273602    12

Track STARLINK-4480 in real time with AllMySat

Download on the App Store